パンスターズ彗星

C/2026 L1 ( PanSTARRS )

English version
Home page
Updated on August 9, 2026

---------------------------------------------------------------------

・ プロフィール

発見日 2026年6月8日
発見光度 20.0等
発見者 Pan-STARRS 1 telescope (Haleakala)

・ 写真集

・ 軌道要素

Epoch 2026 June 9.0 TT = JDT 2461200.5
T 2027 Apr. 11.26635 TT                                 Pike
q   4.8801127            (2000.0)            P               Q
z  +0.0013612      Peri.  200.57189     +0.71136335     +0.04693764
 +/-0.0000884      Node   130.50453     -0.44328046     +0.80424758
e   0.9933570      Incl.   67.26082     -0.54540317     -0.59243792
From 101 observations 2026 Apr. 8-July 6, mean residual 0".5.

・ 光度変化

        m1 = 8.0 + 5 logΔ + 10.0 log r

---------------------------------------------------------------------

軌道要素はM.P.E.C. 2026-N12に掲載されたものです。
光度グラフはComet for Windowsで作成したものです。

---------------------------------------------------------------------

Copyright(C) Seiichi Yoshida (comet@aerith.net). All rights reserved.